Time,TemperatureF,DewpointF,PressureIn,WindDirection,WindDirectionDegrees,WindSpeedMPH,WindSpeedGustMPH,Humidity,HourlyPrecipIn,Conditions,Clouds,dailyrainin,SoftwareType,DateUTC
2013-03-07 00:00:00,25.5,19.5,30.04,North,0,0.0,0.0,78,0.00,,,0.00,WUHU215HW,2013-03-07 06:00:00,
2013-03-07 00:04:00,25.5,19.5,30.04,North,0,0.0,0.0,79,0.00,,,0.00,WUHU215HW,2013-03-07 06:04:00,
2013-03-07 00:05:00,25.5,19.5,30.04,North,0,0.0,0.0,79,0.00,,,0.00,WUHU215HW,2013-03-07 06:05:00,
2013-03-07 00:08:00,25.3,19.5,30.04,SSE,158,0.0,0.0,79,0.00,,,0.00,WUHU215HW,2013-03-07 06:08:00,
2013-03-07 00:10:00,25.3,19.5,30.04,SSE,158,0.0,0.0,79,0.00,,,0.00,WUHU215HW,2013-03-07 06:10:00,
2013-03-07 00:15:00,25.1,19.5,30.04,SSE,158,0.0,0.0,79,0.00,,,0.00,WUHU215HW,2013-03-07 06:15:00,
2013-03-07 00:16:00,25.1,19.5,30.04,SSE,158,0.0,0.0,79,0.00,,,0.00,WUHU215HW,2013-03-07 06:16:00,
2013-03-07 00:20:00,25.1,19.5,30.04,SE,135,0.0,0.0,79,0.00,,,0.00,WUHU215HW,2013-03-07 06:20:00,
2013-03-07 00:21:00,25.1,19.5,30.04,SE,135,0.0,0.0,79,0.00,,,0.00,WUHU215HW,2013-03-07 06:21:00,
2013-03-07 00:26:00,24.9,19.4,30.04,SSE,158,0.0,0.0,79,0.00,,,0.00,WUHU215HW,2013-03-07 06:26:00,
2013-03-07 00:28:00,24.9,19.4,30.04,SSE,158,0.0,0.0,79,0.00,,,0.00,WUHU215HW,2013-03-07 06:28:00,
2013-03-07 00:32:00,24.9,19.7,30.04,SSE,158,0.0,0.0,80,0.00,,,0.00,WUHU215HW,2013-03-07 06:32:00,
2013-03-07 00:33:00,24.9,19.7,30.04,SSE,158,0.0,0.0,80,0.00,,,0.00,WUHU215HW,2013-03-07 06:33:00,
2013-03-07 00:34:00,24.9,19.7,30.04,SSE,158,0.0,0.0,80,0.00,,,0.00,WUHU215HW,2013-03-07 06:34:00,
2013-03-07 00:38:00,24.9,19.7,30.04,SE,135,0.0,0.0,80,0.00,,,0.00,WUHU215HW,2013-03-07 06:38:00,
2013-03-07 00:40:00,24.9,19.7,30.04,SE,135,0.0,0.0,79,0.00,,,0.00,WUHU215HW,2013-03-07 06:40:00,
2013-03-07 00:42:00,24.9,19.7,30.04,SE,135,0.0,0.0,79,0.00,,,0.00,WUHU215HW,2013-03-07 06:42:00,
2013-03-07 00:47:00,24.9,19.7,30.04,North,0,0.0,0.0,80,0.00,,,0.00,WUHU215HW,2013-03-07 06:47:00,
2013-03-07 00:48:00,24.9,19.7,30.04,North,0,0.0,0.0,80,0.00,,,0.00,WUHU215HW,2013-03-07 06:48:00,
2013-03-07 00:49:00,24.9,19.7,30.04,North,0,0.0,0.0,80,0.00,,,0.00,WUHU215HW,2013-03-07 06:49:00,
2013-03-07 00:52:00,24.9,19.7,30.04,SE,135,0.0,0.0,80,0.00,,,0.00,WUHU215HW,2013-03-07 06:52:00,
2013-03-07 00:53:00,24.9,19.7,30.04,SE,135,0.0,0.0,80,0.00,,,0.00,WUHU215HW,2013-03-07 06:53:00,
2013-03-07 00:54:00,24.8,19.5,30.04,SE,135,0.0,0.0,80,0.00,,,0.00,WUHU215HW,2013-03-07 06:54:00,
2013-03-07 00:59:00,24.6,19.4,30.04,SSE,158,0.0,0.0,80,0.00,,,0.00,WUHU215HW,2013-03-07 06:59:00,
2013-03-07 01:01:00,24.6,19.4,30.04,SSE,158,0.0,0.0,80,0.00,,,0.00,WUHU215HW,2013-03-07 07:01:00,
2013-03-07 01:06:00,24.6,19.4,30.04,NE,45,0.0,0.0,80,0.00,,,0.00,WUHU215HW,2013-03-07 07:06:00,
2013-03-07 01:10:00,24.6,19.4,30.04,NE,45,0.0,0.0,80,0.00,,,0.00,WUHU215HW,2013-03-07 07:10:00,
2013-03-07 01:11:00,24.6,19.4,30.04,NE,45,0.0,0.0,80,0.00,,,0.00,WUHU215HW,2013-03-07 07:11:00,
2013-03-07 01:13:00,24.6,19.4,30.04,ESE,113,0.0,0.0,81,0.00,,,0.00,WUHU215HW,2013-03-07 07:13:00,
2013-03-07 01:16:00,24.6,19.4,30.04,SSE,158,0.0,0.0,81,0.00,,,0.00,WUHU215HW,2013-03-07 07:16:00,
2013-03-07 01:20:00,24.6,19.6,30.04,SSE,158,0.0,0.0,81,0.00,,,0.00,WUHU215HW,2013-03-07 07:20:00,
2013-03-07 01:21:00,24.6,19.6,30.04,SSE,158,0.0,0.0,81,0.00,,,0.00,WUHU215HW,2013-03-07 07:21:00,
2013-03-07 01:23:00,24.6,19.6,30.04,SSW,203,3.1,3.1,81,0.00,,,0.00,WUHU215HW,2013-03-07 07:23:00,
2013-03-07 01:25:00,24.6,19.6,30.04,SSW,203,3.1,3.1,81,0.00,,,0.00,WUHU215HW,2013-03-07 07:25:00,
2013-03-07 01:30:00,24.6,19.6,30.04,SW,225,0.0,3.1,81,0.00,,,0.00,WUHU215HW,2013-03-07 07:30:00,
2013-03-07 01:32:00,24.6,19.6,30.04,SW,225,0.0,3.1,81,0.00,,,0.00,WUHU215HW,2013-03-07 07:32:00,
2013-03-07 01:35:00,24.6,19.6,30.04,East,90,0.0,0.0,81,0.00,,,0.00,WUHU215HW,2013-03-07 07:35:00,
2013-03-07 01:37:00,24.6,19.6,30.04,East,90,0.0,0.0,81,0.00,,,0.00,WUHU215HW,2013-03-07 07:37:00,
2013-03-07 01:39:00,24.6,19.6,30.04,SSE,158,0.0,0.0,81,0.00,,,0.00,WUHU215HW,2013-03-07 07:39:00,
2013-03-07 01:40:00,24.6,19.6,30.04,SSE,158,0.0,0.0,81,0.00,,,0.00,WUHU215HW,2013-03-07 07:40:00,
2013-03-07 01:46:00,24.4,19.6,30.04,SSE,158,0.0,0.0,81,0.00,,,0.00,WUHU215HW,2013-03-07 07:46:00,
2013-03-07 01:47:00,24.4,19.6,30.04,SSE,158,0.0,0.0,81,0.00,,,0.00,WUHU215HW,2013-03-07 07:47:00,
2013-03-07 01:52:00,24.4,19.6,30.04,SSE,158,1.3,1.3,81,0.00,,,0.00,WUHU215HW,2013-03-07 07:52:00,
2013-03-07 01:57:00,24.4,19.4,30.04,SSE,158,1.3,1.3,81,0.00,,,0.00,WUHU215HW,2013-03-07 07:57:00,
2013-03-07 02:02:00,24.4,19.4,30.04,SE,135,0.6,1.3,81,0.00,,,0.00,WUHU215HW,2013-03-07 08:02:00,
2013-03-07 02:06:00,24.4,19.4,30.04,SE,135,0.6,0.6,81,0.00,,,0.00,WUHU215HW,2013-03-07 08:06:00,
2013-03-07 02:07:00,24.4,19.4,30.04,SE,135,0.6,0.6,81,0.00,,,0.00,WUHU215HW,2013-03-07 08:07:00,
2013-03-07 02:12:00,24.4,19.4,30.04,ESE,113,0.0,0.6,81,0.00,,,0.00,WUHU215HW,2013-03-07 08:12:00,
2013-03-07 02:16:00,24.4,19.4,30.04,SE,135,0.4,0.4,81,0.00,,,0.00,WUHU215HW,2013-03-07 08:16:00,
2013-03-07 02:17:00,24.4,19.4,30.04,SE,135,0.4,0.4,81,0.00,,,0.00,WUHU215HW,2013-03-07 08:17:00,
2013-03-07 02:22:00,24.4,19.4,30.04,SE,135,0.0,0.4,81,0.00,,,0.00,WUHU215HW,2013-03-07 08:22:00,
2013-03-07 02:27:00,24.4,19.4,30.04,South,180,0.0,0.0,81,0.00,,,0.00,WUHU215HW,2013-03-07 08:27:00,
2013-03-07 02:32:00,24.4,19.4,30.04,SSE,158,0.0,0.0,81,0.00,,,0.00,WUHU215HW,2013-03-07 08:32:00,
2013-03-07 02:37:00,24.4,19.3,30.04,SSE,158,1.3,1.3,81,0.00,,,0.00,WUHU215HW,2013-03-07 08:37:00,
2013-03-07 02:42:00,24.0,19.3,30.04,East,90,0.0,1.3,81,0.00,,,0.00,WUHU215HW,2013-03-07 08:42:00,
2013-03-07 02:47:00,24.0,19.1,30.04,SE,135,0.0,1.3,81,0.00,,,0.00,WUHU215HW,2013-03-07 08:47:00,
2013-03-07 02:50:00,24.0,19.1,30.04,SE,135,0.0,0.0,81,0.00,,,0.00,WUHU215HW,2013-03-07 08:50:00,
2013-03-07 02:52:00,24.0,19.4,30.04,ESE,113,0.0,0.0,82,0.00,,,0.00,WUHU215HW,2013-03-07 08:52:00,
2013-03-07 02:57:00,24.0,19.1,30.04,SSE,158,0.6,0.6,81,0.00,,,0.00,WUHU215HW,2013-03-07 08:57:00,
2013-03-07 03:02:00,24.0,19.1,30.04,SE,135,0.0,0.6,82,0.00,,,0.00,WUHU215HW,2013-03-07 09:02:00,
2013-03-07 03:03:00,24.0,19.1,30.04,SE,135,0.0,0.6,82,0.00,,,0.00,WUHU215HW,2013-03-07 09:03:00,
2013-03-07 03:07:00,24.0,19.1,30.04,SE,135,0.0,0.0,82,0.00,,,0.00,WUHU215HW,2013-03-07 09:07:00,
2013-03-07 03:12:00,23.9,19.1,30.04,SE,135,0.0,0.0,82,0.00,,,0.00,WUHU215HW,2013-03-07 09:12:00,
2013-03-07 03:18:00,23.7,19.2,30.04,SSE,158,0.0,0.0,82,0.00,,,0.00,WUHU215HW,2013-03-07 09:18:00,
2013-03-07 03:23:00,23.7,19.0,30.04,South,180,0.0,0.0,82,0.00,,,0.00,WUHU215HW,2013-03-07 09:23:00,
2013-03-07 03:28:00,23.5,19.0,30.04,SE,135,0.0,0.0,82,0.00,,,0.00,WUHU215HW,2013-03-07 09:28:00,
2013-03-07 03:30:00,23.5,18.8,30.04,SSE,158,0.0,0.0,82,0.00,,,0.00,WUHU215HW,2013-03-07 09:30:00,
2013-03-07 03:33:00,23.5,18.8,30.04,SSE,158,0.0,0.0,82,0.00,,,0.00,WUHU215HW,2013-03-07 09:33:00,
2013-03-07 03:39:00,23.5,18.8,30.04,NNE,23,0.0,0.0,82,0.00,,,0.00,WUHU215HW,2013-03-07 09:39:00,
2013-03-07 03:44:00,23.5,18.8,30.04,NE,45,0.0,0.0,82,0.00,,,0.00,WUHU215HW,2013-03-07 09:44:00,
2013-03-07 03:49:00,23.3,18.8,30.04,NE,45,0.0,0.0,83,0.00,,,0.00,WUHU215HW,2013-03-07 09:49:00,
2013-03-07 03:50:00,23.3,18.8,30.04,NE,45,0.0,0.0,83,0.00,,,0.00,WUHU215HW,2013-03-07 09:50:00,
2013-03-07 03:55:00,23.3,18.6,30.04,ESE,113,0.0,0.0,82,0.00,,,0.00,WUHU215HW,2013-03-07 09:55:00,
2013-03-07 03:56:00,23.3,18.6,30.04,East,90,0.0,0.0,82,0.00,,,0.00,WUHU215HW,2013-03-07 09:56:00,
2013-03-07 04:01:00,23.3,18.6,30.04,SE,135,0.0,0.0,82,0.00,,,0.00,WUHU215HW,2013-03-07 10:01:00,
2013-03-07 04:02:00,23.3,18.6,30.04,SE,135,0.0,0.0,82,0.00,,,0.00,WUHU215HW,2013-03-07 10:02:00,
2013-03-07 04:07:00,23.3,18.9,30.04,South,180,0.0,0.0,83,0.00,,,0.00,WUHU215HW,2013-03-07 10:07:00,
2013-03-07 04:12:00,23.3,18.9,30.04,SSE,158,0.0,0.0,83,0.00,,,0.00,WUHU215HW,2013-03-07 10:12:00,
2013-03-07 04:13:00,23.1,18.9,30.04,SE,135,0.0,0.0,83,0.00,,,0.00,WUHU215HW,2013-03-07 10:13:00,
2013-03-07 04:18:00,23.1,18.9,30.04,SE,135,0.0,0.0,83,0.00,,,0.00,WUHU215HW,2013-03-07 10:18:00,
2013-03-07 04:23:00,23.0,18.5,30.04,SE,135,0.0,0.0,83,0.00,,,0.00,WUHU215HW,2013-03-07 10:23:00,
2013-03-07 04:28:00,22.8,18.4,30.04,ESE,113,0.0,0.0,83,0.00,,,0.00,WUHU215HW,2013-03-07 10:28:00,
2013-03-07 04:30:00,22.8,18.4,30.04,ESE,113,0.0,0.0,83,0.00,,,0.00,WUHU215HW,2013-03-07 10:30:00,
2013-03-07 04:34:00,22.8,18.4,30.04,SSE,158,0.0,0.0,83,0.00,,,0.00,WUHU215HW,2013-03-07 10:34:00,
2013-03-07 04:39:00,22.8,18.4,30.04,SE,135,0.0,0.0,83,0.00,,,0.00,WUHU215HW,2013-03-07 10:39:00,
2013-03-07 04:42:00,22.8,18.4,30.04,SE,135,0.0,0.0,83,0.00,,,0.00,WUHU215HW,2013-03-07 10:42:00,
2013-03-07 04:44:00,22.8,18.4,30.04,ENE,68,0.0,0.0,83,0.00,,,0.00,WUHU215HW,2013-03-07 10:44:00,
2013-03-07 04:49:00,22.8,18.4,30.04,NE,45,0.0,0.0,83,0.00,,,0.00,WUHU215HW,2013-03-07 10:49:00,
2013-03-07 04:55:00,22.6,18.2,30.04,SSE,158,0.0,0.0,83,0.00,,,0.00,WUHU215HW,2013-03-07 10:55:00,
2013-03-07 04:56:00,22.6,18.2,30.04,SSE,158,0.0,0.0,83,0.00,,,0.00,WUHU215HW,2013-03-07 10:56:00,
2013-03-07 05:01:00,22.8,18.4,30.04,South,180,0.6,0.6,83,0.00,,,0.00,WUHU215HW,2013-03-07 11:01:00,
2013-03-07 05:07:00,22.6,18.4,30.04,SSE,158,2.4,2.4,83,0.00,,,0.00,WUHU215HW,2013-03-07 11:07:00,
2013-03-07 05:12:00,22.8,18.4,30.04,SSE,158,2.4,2.4,83,0.00,,,0.00,WUHU215HW,2013-03-07 11:12:00,
2013-03-07 05:13:00,22.6,18.5,30.04,SSE,158,2.4,2.4,84,0.00,,,0.00,WUHU215HW,2013-03-07 11:13:00,
2013-03-07 05:18:00,22.6,18.6,30.04,NE,45,0.0,2.4,84,0.00,,,0.00,WUHU215HW,2013-03-07 11:18:00,
2013-03-07 05:24:00,22.6,18.6,30.04,NE,45,0.0,0.0,84,0.00,,,0.00,WUHU215HW,2013-03-07 11:24:00,
2013-03-07 05:29:00,22.6,18.5,30.04,SSE,158,2.4,2.4,84,0.00,,,0.00,WUHU215HW,2013-03-07 11:29:00,
2013-03-07 05:34:00,22.6,18.5,30.04,ESE,113,0.0,2.4,84,0.00,,,0.00,WUHU215HW,2013-03-07 11:34:00,
2013-03-07 05:40:00,22.6,18.5,30.04,SE,135,0.4,0.4,84,0.00,,,0.00,WUHU215HW,2013-03-07 11:40:00,
2013-03-07 05:42:00,22.6,18.5,30.04,SE,135,0.4,0.4,84,0.00,,,0.00,WUHU215HW,2013-03-07 11:42:00,
2013-03-07 05:46:00,22.6,18.5,30.04,SE,135,0.0,0.4,84,0.00,,,0.00,WUHU215HW,2013-03-07 11:46:00,
2013-03-07 05:51:00,22.4,18.3,30.04,SE,135,0.0,0.0,84,0.00,,,0.00,WUHU215HW,2013-03-07 11:51:00,
2013-03-07 05:55:00,22.4,18.3,30.04,SE,135,0.0,0.0,84,0.00,,,0.00,WUHU215HW,2013-03-07 11:55:00,
2013-03-07 05:56:00,22.4,18.3,30.04,SE,135,0.0,0.0,84,0.00,,,0.00,WUHU215HW,2013-03-07 11:56:00,
2013-03-07 06:01:00,22.4,18.3,30.04,SE,135,0.0,0.0,84,0.00,,,0.00,WUHU215HW,2013-03-07 12:01:00,
2013-03-07 06:05:00,22.4,18.3,30.04,SSW,203,0.6,0.6,84,0.00,,,0.00,WUHU215HW,2013-03-07 12:05:00,
2013-03-07 06:06:00,22.4,18.3,30.04,SSW,203,0.6,0.6,84,0.00,,,0.00,WUHU215HW,2013-03-07 12:06:00,
2013-03-07 06:11:00,22.4,18.3,30.04,SSW,203,0.6,0.6,84,0.00,,,0.00,WUHU215HW,2013-03-07 12:11:00,
2013-03-07 06:12:00,22.4,18.3,30.04,SSW,203,0.6,0.6,84,0.00,,,0.00,WUHU215HW,2013-03-07 12:12:00,
2013-03-07 06:16:00,22.4,18.3,30.04,SSW,203,0.6,0.6,84,0.00,,,0.00,WUHU215HW,2013-03-07 12:16:00,
2013-03-07 06:22:00,22.4,18.3,30.04,SSW,203,0.6,0.6,84,0.00,,,0.00,WUHU215HW,2013-03-07 12:22:00,
2013-03-07 06:27:00,22.4,18.3,30.04,SSW,203,0.6,0.6,84,0.00,,,0.00,WUHU215HW,2013-03-07 12:27:00,
2013-03-07 06:32:00,22.6,18.3,30.04,SSW,203,0.6,0.6,84,0.00,,,0.00,WUHU215HW,2013-03-07 12:32:00,
2013-03-07 06:34:00,22.4,18.3,30.04,NNE,23,0.0,0.6,84,0.00,,,0.00,WUHU215HW,2013-03-07 12:34:00,
2013-03-07 06:37:00,22.4,18.3,30.04,NNE,23,0.0,0.6,84,0.00,,,0.00,WUHU215HW,2013-03-07 12:37:00,
2013-03-07 06:40:00,22.4,18.3,30.04,ESE,113,0.0,0.6,84,0.00,,,0.00,WUHU215HW,2013-03-07 12:40:00,
2013-03-07 06:42:00,22.4,18.3,30.04,SSE,158,0.0,0.0,84,0.00,,,0.00,WUHU215HW,2013-03-07 12:42:00,
2013-03-07 06:46:00,22.4,18.3,30.04,East,90,1.1,1.1,84,0.00,,,0.00,WUHU215HW,2013-03-07 12:46:00,
2013-03-07 06:47:00,22.4,18.3,30.04,East,90,1.1,1.1,84,0.00,,,0.00,WUHU215HW,2013-03-07 12:47:00,
2013-03-07 06:52:00,22.4,18.3,30.04,SSE,158,2.0,2.0,84,0.00,,,0.00,WUHU215HW,2013-03-07 12:52:00,
2013-03-07 06:57:00,22.4,18.3,30.04,SSE,158,2.0,2.0,84,0.00,,,0.00,WUHU215HW,2013-03-07 12:57:00,
2013-03-07 07:02:00,22.6,18.5,30.04,SSE,158,2.0,2.0,84,0.00,,,0.00,WUHU215HW,2013-03-07 13:02:00,
2013-03-07 07:07:00,22.6,18.5,30.04,East,90,0.0,2.0,84,0.00,,,0.00,WUHU215HW,2013-03-07 13:07:00,
2013-03-07 07:12:00,22.6,18.5,30.04,East,90,0.0,0.0,84,0.00,,,0.00,WUHU215HW,2013-03-07 13:12:00,
2013-03-07 07:17:00,22.8,18.6,30.04,East,90,0.0,0.0,84,0.00,,,0.00,WUHU215HW,2013-03-07 13:17:00,
2013-03-07 07:18:00,22.8,18.6,30.04,East,90,0.0,0.0,84,0.00,,,0.00,WUHU215HW,2013-03-07 13:18:00,
2013-03-07 07:23:00,23.0,18.8,30.04,SE,135,0.6,0.6,84,0.00,,,0.00,WUHU215HW,2013-03-07 13:23:00,
2013-03-07 07:24:00,23.0,18.8,30.04,SE,135,0.6,0.6,84,0.00,,,0.00,WUHU215HW,2013-03-07 13:24:00,
2013-03-07 07:25:00,23.0,18.8,30.04,SE,135,0.6,0.6,84,0.00,,,0.00,WUHU215HW,2013-03-07 13:25:00,
2013-03-07 07:29:00,23.1,18.8,30.04,SE,135,0.6,0.6,84,0.00,,,0.00,WUHU215HW,2013-03-07 13:29:00,
2013-03-07 07:35:00,23.5,19.4,30.04,South,180,0.2,0.6,84,0.00,,,0.00,WUHU215HW,2013-03-07 13:35:00,
2013-03-07 07:36:00,23.7,19.4,30.04,South,180,0.2,0.6,84,0.00,,,0.00,WUHU215HW,2013-03-07 13:36:00,
2013-03-07 07:40:00,23.9,19.4,30.04,South,180,0.2,0.2,84,0.00,,,0.00,WUHU215HW,2013-03-07 13:40:00,
2013-03-07 07:41:00,23.9,19.4,30.04,South,180,0.2,0.2,84,0.00,,,0.00,WUHU215HW,2013-03-07 13:41:00,
2013-03-07 07:46:00,24.2,20.1,30.04,NNE,23,0.0,0.2,84,0.00,,,0.00,WUHU215HW,2013-03-07 13:46:00,
2013-03-07 07:47:00,24.2,20.1,30.04,SE,135,0.4,0.4,84,0.00,,,0.00,WUHU215HW,2013-03-07 13:47:00,
2013-03-07 07:51:00,24.6,20.2,30.04,South,176,2.1,2.9,83,0.00,,,0.00,WUHU215HW,2013-03-07 13:51:00,
2013-03-07 07:57:00,25.1,20.7,30.04,SSE,158,1.3,2.9,83,0.00,,,0.00,WUHU215HW,2013-03-07 13:57:00,
2013-03-07 08:02:00,25.5,21.0,30.04,NNE,23,0.0,1.3,83,0.00,,,0.00,WUHU215HW,2013-03-07 14:02:00,
2013-03-07 08:03:00,25.5,21.0,30.04,NNE,23,0.0,1.3,83,0.00,,,0.00,WUHU215HW,2013-03-07 14:03:00,
2013-03-07 08:08:00,26.0,20.9,30.04,SE,135,0.0,0.0,82,0.00,,,0.00,WUHU215HW,2013-03-07 14:08:00,
2013-03-07 08:13:00,26.4,21.4,30.04,SSE,158,0.0,0.0,82,0.00,,,0.00,WUHU215HW,2013-03-07 14:13:00,
2013-03-07 08:19:00,26.7,21.7,30.04,WSW,248,0.0,0.0,82,0.00,,,0.00,WUHU215HW,2013-03-07 14:19:00,
2013-03-07 08:20:00,26.7,21.7,30.04,WSW,248,0.0,0.0,82,0.00,,,0.00,WUHU215HW,2013-03-07 14:20:00,
2013-03-07 08:25:00,27.1,22.0,30.04,SSE,158,0.0,0.0,81,0.00,,,0.00,WUHU215HW,2013-03-07 14:25:00,
2013-03-07 08:29:00,27.3,22.0,30.04,SSE,158,0.0,0.0,81,0.00,,,0.00,WUHU215HW,2013-03-07 14:29:00,
2013-03-07 08:30:00,27.6,22.0,30.04,SSE,158,0.0,0.0,81,0.00,,,0.00,WUHU215HW,2013-03-07 14:30:00,
2013-03-07 08:35:00,28.0,22.2,30.04,SSE,158,0.0,0.0,80,0.00,,,0.00,WUHU215HW,2013-03-07 14:35:00,
2013-03-07 08:41:00,28.5,23.1,30.04,NNE,23,0.0,0.0,80,0.00,,,0.00,WUHU215HW,2013-03-07 14:41:00,
2013-03-07 08:42:00,28.5,23.1,30.04,NNE,23,0.0,0.0,80,0.00,,,0.00,WUHU215HW,2013-03-07 14:42:00,
2013-03-07 08:46:00,28.5,23.1,30.04,NNE,23,0.0,0.0,80,0.00,,,0.00,WUHU215HW,2013-03-07 14:46:00,
2013-03-07 08:51:00,29.1,23.3,30.04,SE,135,0.0,0.0,78,0.00,,,0.00,WUHU215HW,2013-03-07 14:51:00,
2013-03-07 08:57:00,29.3,23.2,30.04,North,0,0.0,0.0,78,0.00,,,0.00,WUHU215HW,2013-03-07 14:57:00,
2013-03-07 08:59:00,29.4,23.4,30.04,SE,135,1.7,1.7,78,0.00,,,0.00,WUHU215HW,2013-03-07 14:59:00,
2013-03-07 09:02:00,29.5,23.5,30.04,ESE,113,3.1,3.1,78,0.00,,,0.00,WUHU215HW,2013-03-07 15:02:00,
2013-03-07 09:04:00,29.6,23.6,30.04,ESE,113,3.1,3.1,78,0.00,,,0.00,WUHU215HW,2013-03-07 15:04:00,
2013-03-07 09:07:00,29.6,23.6,30.04,SE,135,3.1,3.1,78,0.00,,,0.00,WUHU215HW,2013-03-07 15:07:00,
2013-03-07 09:12:00,29.6,23.3,30.04,SE,135,3.1,3.1,77,0.00,,,0.00,WUHU215HW,2013-03-07 15:12:00,
2013-03-07 09:17:00,29.8,23.5,30.04,SSW,203,4.4,4.4,77,0.00,,,0.00,WUHU215HW,2013-03-07 15:17:00,
2013-03-07 09:23:00,30.6,24.0,30.04,SSE,158,5.3,5.3,76,0.00,,,0.00,WUHU215HW,2013-03-07 15:23:00,
2013-03-07 09:26:00,30.8,24.1,30.04,SE,135,0.2,5.3,76,0.00,,,0.00,WUHU215HW,2013-03-07 15:26:00,
2013-03-07 09:28:00,31.3,24.6,30.04,SE,135,0.2,5.3,76,0.00,,,0.00,WUHU215HW,2013-03-07 15:28:00,
2013-03-07 09:32:00,31.6,24.3,30.04,SSE,158,0.0,5.3,74,0.00,,,0.00,WUHU215HW,2013-03-07 15:32:00,
2013-03-07 09:33:00,31.5,24.2,30.04,SSE,158,0.0,0.2,74,0.00,,,0.00,WUHU215HW,2013-03-07 15:33:00,
2013-03-07 09:37:00,31.3,24.0,30.04,SSE,158,0.0,0.2,74,0.00,,,0.00,WUHU215HW,2013-03-07 15:37:00,
2013-03-07 09:38:00,32.2,24.5,30.04,SSE,158,0.0,0.0,73,0.00,,,0.00,WUHU215HW,2013-03-07 15:38:00,
2013-03-07 09:43:00,32.6,25.0,30.04,SSE,158,4.0,4.0,73,0.00,,,0.00,WUHU215HW,2013-03-07 15:43:00,
2013-03-07 09:47:00,32.4,24.8,30.04,SSW,203,0.0,4.0,73,0.00,,,0.00,WUHU215HW,2013-03-07 15:47:00,
2013-03-07 09:48:00,32.4,24.7,30.04,SSW,203,0.0,4.0,73,0.00,,,0.00,WUHU215HW,2013-03-07 15:48:00,
2013-03-07 09:53:00,34.5,25.8,30.04,WSW,248,0.2,0.2,70,0.00,,,0.00,WUHU215HW,2013-03-07 15:53:00,
2013-03-07 09:54:00,34.5,25.8,30.04,WSW,248,0.2,0.2,70,0.00,,,0.00,WUHU215HW,2013-03-07 15:54:00,
2013-03-07 09:58:00,34.3,25.6,30.04,SE,135,12.0,12.0,70,0.00,,,0.00,WUHU215HW,2013-03-07 15:58:00,
2013-03-07 10:03:00,34.1,25.4,30.04,SE,135,12.0,12.0,70,0.00,,,0.00,WUHU215HW,2013-03-07 16:03:00,
2013-03-07 10:08:00,36.3,26.5,30.04,SE,135,12.0,12.0,67,0.00,,,0.00,WUHU215HW,2013-03-07 16:08:00,
2013-03-07 10:13:00,36.1,26.3,30.04,SE,135,12.0,12.0,67,0.00,,,0.00,WUHU215HW,2013-03-07 16:13:00,
2013-03-07 10:14:00,36.1,26.3,30.04,SE,135,12.0,12.0,67,0.00,,,0.00,WUHU215HW,2013-03-07 16:14:00,
2013-03-07 10:18:00,35.9,26.1,30.04,SE,135,12.0,12.0,67,0.00,,,0.00,WUHU215HW,2013-03-07 16:18:00,
2013-03-07 10:24:00,35.7,25.8,30.04,SE,135,12.0,12.0,67,0.00,,,0.00,WUHU215HW,2013-03-07 16:24:00,
2013-03-07 10:29:00,35.4,25.6,30.04,SE,135,12.0,12.0,67,0.00,,,0.00,WUHU215HW,2013-03-07 16:29:00,
2013-03-07 10:35:00,35.2,25.4,30.04,SE,135,12.0,12.0,67,0.00,,,0.00,WUHU215HW,2013-03-07 16:35:00,
2013-03-07 10:40:00,39.7,29.7,30.04,SE,135,12.0,12.0,67,0.00,,,0.00,WUHU215HW,2013-03-07 16:40:00,
2013-03-07 10:45:00,39.5,29.6,30.04,SE,135,12.0,12.0,67,0.00,,,0.00,WUHU215HW,2013-03-07 16:45:00,
2013-03-07 10:46:00,39.5,29.5,30.04,SE,135,12.0,12.0,67,0.00,,,0.00,WUHU215HW,2013-03-07 16:46:00,
2013-03-07 10:51:00,39.3,25.8,30.04,SE,135,4.2,12.0,58,0.00,,,0.00,WUHU215HW,2013-03-07 16:51:00,
2013-03-07 10:56:00,39.4,25.9,30.04,SE,135,3.9,12.0,58,0.00,,,0.00,WUHU215HW,2013-03-07 16:56:00,
2013-03-07 11:02:00,39.6,25.7,30.04,SSE,158,9.8,9.8,57,0.00,,,0.00,WUHU215HW,2013-03-07 17:02:00,
2013-03-07 11:04:00,39.6,25.6,30.04,SSE,158,9.8,9.8,57,0.00,,,0.00,WUHU215HW,2013-03-07 17:04:00,
2013-03-07 11:07:00,40.0,26.0,30.04,SE,135,7.1,9.8,57,0.00,,,0.00,WUHU215HW,2013-03-07 17:07:00,
2013-03-07 11:13:00,40.9,26.4,30.04,SSE,158,4.9,9.8,56,0.00,,,0.00,WUHU215HW,2013-03-07 17:13:00,
2013-03-07 11:18:00,41.9,26.9,30.04,SSE,158,4.9,4.9,55,0.00,,,0.00,WUHU215HW,2013-03-07 17:18:00,
2013-03-07 11:24:00,42.2,26.8,30.04,SE,135,1.3,4.9,54,0.00,,,0.00,WUHU215HW,2013-03-07 17:24:00,
2013-03-07 11:25:00,42.2,25.8,30.04,SE,135,1.3,4.9,52,0.00,,,0.00,WUHU215HW,2013-03-07 17:25:00,
2013-03-07 11:28:00,42.1,25.7,30.04,South,180,5.8,5.8,52,0.00,,,0.00,WUHU215HW,2013-03-07 17:28:00,
2013-03-07 11:29:00,42.1,25.7,30.04,South,180,5.8,5.8,52,0.00,,,0.00,WUHU215HW,2013-03-07 17:29:00,
2013-03-07 11:34:00,43.3,26.8,30.04,South,180,5.8,5.8,52,0.00,,,0.00,WUHU215HW,2013-03-07 17:34:00,
2013-03-07 11:39:00,43.7,26.7,30.04,South,180,5.8,5.8,51,0.00,,,0.00,WUHU215HW,2013-03-07 17:39:00,
2013-03-07 11:44:00,43.8,26.8,30.04,SE,135,7.1,7.1,51,0.00,,,0.00,WUHU215HW,2013-03-07 17:44:00,
2013-03-07 11:45:00,43.7,26.3,30.04,SE,135,7.1,7.1,50,0.00,,,0.00,WUHU215HW,2013-03-07 17:45:00,
2013-03-07 11:49:00,44.3,26.3,30.04,SE,135,7.1,7.1,49,0.00,,,0.00,WUHU215HW,2013-03-07 17:49:00,
2013-03-07 11:55:00,44.3,26.3,30.04,ESE,113,0.4,7.3,49,0.00,,,0.00,WUHU215HW,2013-03-07 17:55:00,
2013-03-07 11:57:00,44.3,26.2,30.04,ESE,113,0.4,7.3,49,0.00,,,0.00,WUHU215HW,2013-03-07 17:57:00,
2013-03-07 12:00:00,44.2,26.2,30.04,SE,135,6.4,7.3,49,0.00,,,0.00,WUHU215HW,2013-03-07 18:00:00,
2013-03-07 12:01:00,44.2,26.2,30.04,SE,135,6.4,7.3,49,0.00,,,0.00,WUHU215HW,2013-03-07 18:01:00,
2013-03-07 12:07:00,45.0,26.4,30.04,SE,135,6.4,6.4,48,0.00,,,0.00,WUHU215HW,2013-03-07 18:07:00,
2013-03-07 12:10:00,45.6,27.0,30.04,SSE,158,6.7,6.7,48,0.00,,,0.00,WUHU215HW,2013-03-07 18:10:00,
2013-03-07 12:12:00,45.9,27.2,30.04,SSE,158,6.7,6.7,48,0.00,,,0.00,WUHU215HW,2013-03-07 18:12:00,
2013-03-07 12:17:00,46.3,27.0,30.04,SSE,153,7.7,9.1,47,0.00,,,0.00,WUHU215HW,2013-03-07 18:17:00,
2013-03-07 12:18:00,46.2,27.0,30.04,SE,146,6.3,9.1,47,0.00,,,0.00,WUHU215HW,2013-03-07 18:18:00,
2013-03-07 12:20:00,46.2,27.0,30.04,SE,135,5.1,9.1,47,0.00,,,0.00,WUHU215HW,2013-03-07 18:20:00,
2013-03-07 12:23:00,46.4,26.7,30.04,SSE,158,8.7,9.1,46,0.00,,,0.00,WUHU215HW,2013-03-07 18:23:00,
2013-03-07 12:25:00,46.4,26.6,30.04,SSE,158,8.7,9.1,46,0.00,,,0.00,WUHU215HW,2013-03-07 18:25:00,
2013-03-07 12:26:00,46.9,27.1,30.04,SSE,158,8.7,9.1,46,0.00,,,0.00,WUHU215HW,2013-03-07 18:26:00,
2013-03-07 12:30:00,46.9,27.1,30.04,SSE,158,6.1,8.7,46,0.00,,,0.00,WUHU215HW,2013-03-07 18:30:00,
2013-03-07 12:31:00,46.9,27.1,30.04,SSE,158,3.4,8.7,46,0.00,,,0.00,WUHU215HW,2013-03-07 18:31:00,
2013-03-07 12:32:00,47.3,26.9,30.04,SSE,158,0.8,8.7,45,0.00,,,0.00,WUHU215HW,2013-03-07 18:32:00,
2013-03-07 12:36:00,47.3,26.9,30.04,SE,135,7.3,8.7,45,0.00,,,0.00,WUHU215HW,2013-03-07 18:36:00,
2013-03-07 12:37:00,47.3,26.9,30.04,SE,135,7.3,8.7,45,0.00,,,0.00,WUHU215HW,2013-03-07 18:37:00,
2013-03-07 12:40:00,47.8,26.8,30.04,SSE,158,4.9,7.3,44,0.00,,,0.00,WUHU215HW,2013-03-07 18:40:00,
2013-03-07 12:42:00,48.0,27.0,30.04,SSE,158,4.9,7.3,44,0.00,,,0.00,WUHU215HW,2013-03-07 18:42:00,
2013-03-07 12:45:00,48.2,27.2,30.04,ENE,68,1.5,7.3,44,0.00,,,0.00,WUHU215HW,2013-03-07 18:45:00,
2013-03-07 12:50:00,48.4,27.4,30.04,SE,135,5.2,5.8,44,0.00,,,0.00,WUHU215HW,2013-03-07 18:50:00,
2013-03-07 12:51:00,48.6,27.5,30.04,SE,135,4.9,5.8,44,0.00,,,0.00,WUHU215HW,2013-03-07 18:51:00,
2013-03-07 12:55:00,49.0,27.9,30.04,SE,135,5.8,5.8,44,0.00,,,0.00,WUHU215HW,2013-03-07 18:55:00,
2013-03-07 13:01:00,49.4,27.7,30.04,ESE,113,5.8,5.8,43,0.00,,,0.00,WUHU215HW,2013-03-07 19:01:00,
2013-03-07 13:02:00,49.4,27.7,30.04,SE,135,0.0,5.8,43,0.00,,,0.00,WUHU215HW,2013-03-07 19:02:00,
2013-03-07 13:07:00,49.6,27.3,30.04,SSE,158,7.3,7.3,42,0.00,,,0.00,WUHU215HW,2013-03-07 19:07:00,
2013-03-07 13:12:00,49.7,27.3,30.04,SSE,158,2.9,7.3,42,0.00,,,0.00,WUHU215HW,2013-03-07 19:12:00,
2013-03-07 13:13:00,49.7,27.4,30.04,SSE,158,2.9,7.3,42,0.00,,,0.00,WUHU215HW,2013-03-07 19:13:00,
2013-03-07 13:18:00,50.0,27.6,30.04,South,180,4.2,6.0,42,0.00,,,0.00,WUHU215HW,2013-03-07 19:18:00,
2013-03-07 13:19:00,50.2,27.8,30.04,South,180,4.2,6.0,42,0.00,,,0.00,WUHU215HW,2013-03-07 19:19:00,
2013-03-07 13:24:00,50.3,27.9,30.04,NE,45,0.4,6.0,42,0.00,,,0.00,WUHU215HW,2013-03-07 19:24:00,
2013-03-07 13:28:00,50.8,27.8,30.04,East,90,1.7,4.2,41,0.00,,,0.00,WUHU215HW,2013-03-07 19:28:00,
2013-03-07 13:30:00,50.9,27.8,30.04,ESE,113,3.3,4.2,41,0.00,,,0.00,WUHU215HW,2013-03-07 19:30:00,
2013-03-07 13:33:00,50.9,27.9,30.04,SSE,158,7.8,7.8,41,0.00,,,0.00,WUHU215HW,2013-03-07 19:33:00,
2013-03-07 13:34:00,51.2,28.1,30.04,SSE,158,7.8,7.8,41,0.00,,,0.00,WUHU215HW,2013-03-07 19:34:00,
2013-03-07 13:37:00,51.4,28.3,30.04,SSE,165,3.0,7.8,41,0.00,,,0.00,WUHU215HW,2013-03-07 19:37:00,
2013-03-07 13:39:00,51.7,28.6,30.04,South,180,8.9,8.9,41,0.00,,,0.00,WUHU215HW,2013-03-07 19:39:00,
2013-03-07 13:45:00,52.0,28.3,30.04,SE,135,5.5,8.9,40,0.00,,,0.00,WUHU215HW,2013-03-07 19:45:00,
2013-03-07 13:50:00,52.3,28.5,30.04,SSE,148,4.2,6.4,40,0.00,,,0.00,WUHU215HW,2013-03-07 19:50:00,
2013-03-07 13:55:00,52.8,29.0,30.04,SSE,158,3.6,5.1,40,0.00,,,0.00,WUHU215HW,2013-03-07 19:55:00,
2013-03-07 14:00:00,53.1,29.3,30.04,SE,135,0.0,3.8,40,0.00,,,0.00,WUHU215HW,2013-03-07 20:00:00,
2013-03-07 14:01:00,53.2,29.3,30.04,SE,135,0.0,3.8,40,0.00,,,0.00,WUHU215HW,2013-03-07 20:01:00,
2013-03-07 14:05:00,53.3,29.4,30.04,SE,135,0.0,3.1,40,0.00,,,0.00,WUHU215HW,2013-03-07 20:05:00,
2013-03-07 14:06:00,53.3,29.4,30.04,SE,135,0.0,3.1,40,0.00,,,0.00,WUHU215HW,2013-03-07 20:06:00,
2013-03-07 14:11:00,53.5,29.6,30.04,SE,135,0.0,0.0,40,0.00,,,0.00,WUHU215HW,2013-03-07 20:11:00,
2013-03-07 14:13:00,53.6,29.6,30.04,SE,135,0.0,0.0,40,0.00,,,0.00,WUHU215HW,2013-03-07 20:13:00,
2013-03-07 14:17:00,53.7,29.8,30.04,SE,135,0.0,0.0,40,0.00,,,0.00,WUHU215HW,2013-03-07 20:17:00,
2013-03-07 14:18:00,53.7,29.8,30.04,SE,135,0.0,0.0,40,0.00,,,0.00,WUHU215HW,2013-03-07 20:18:00,
2013-03-07 14:22:00,53.9,29.9,30.04,SE,135,0.0,0.0,40,0.00,,,0.00,WUHU215HW,2013-03-07 20:22:00,
2013-03-07 14:25:00,54.0,30.0,30.04,SE,135,0.0,0.0,40,0.00,,,0.00,WUHU215HW,2013-03-07 20:25:00,
2013-03-07 14:27:00,54.1,30.1,30.04,SE,135,0.0,0.0,40,0.00,,,0.00,WUHU215HW,2013-03-07 20:27:00,
2013-03-07 14:29:00,54.1,30.2,30.04,SE,135,0.0,0.0,40,0.00,,,0.00,WUHU215HW,2013-03-07 20:29:00,
2013-03-07 14:32:00,54.3,30.3,30.04,SE,135,0.0,0.0,40,0.00,,,0.00,WUHU215HW,2013-03-07 20:32:00,
2013-03-07 14:37:00,54.5,30.5,30.04,SE,135,0.0,0.0,40,0.00,,,0.00,WUHU215HW,2013-03-07 20:37:00,
2013-03-07 14:43:00,54.7,30.7,30.04,SE,135,0.0,0.0,40,0.00,,,0.00,WUHU215HW,2013-03-07 20:43:00,
2013-03-07 14:44:00,54.8,30.7,30.04,SE,135,0.0,0.0,40,0.00,,,0.00,WUHU215HW,2013-03-07 20:44:00,
2013-03-07 14:48:00,54.9,30.9,30.04,SE,135,0.0,0.0,40,0.00,,,0.00,WUHU215HW,2013-03-07 20:48:00,
2013-03-07 14:49:00,55.0,30.9,30.04,SE,135,0.0,0.0,40,0.00,,,0.00,WUHU215HW,2013-03-07 20:49:00,
2013-03-07 14:54:00,55.2,31.1,30.04,SE,135,0.0,0.0,40,0.00,,,0.00,WUHU215HW,2013-03-07 20:54:00,
2013-03-07 14:55:00,55.2,31.1,30.04,SE,135,0.0,0.0,40,0.00,,,0.00,WUHU215HW,2013-03-07 20:55:00,
2013-03-07 14:59:00,55.4,31.3,30.04,SE,135,0.0,0.0,40,0.00,,,0.00,WUHU215HW,2013-03-07 20:59:00,
2013-03-07 15:04:00,55.6,31.5,30.04,SE,135,0.0,0.0,40,0.00,,,0.00,WUHU215HW,2013-03-07 21:04:00,
2013-03-07 15:05:00,55.7,31.5,30.04,SE,135,0.0,0.0,40,0.00,,,0.00,WUHU215HW,2013-03-07 21:05:00,
2013-03-07 15:10:00,55.9,31.8,30.04,SE,135,0.0,0.0,40,0.00,,,0.00,WUHU215HW,2013-03-07 21:10:00,
2013-03-07 15:15:00,56.1,32.0,30.04,SE,135,0.0,0.0,40,0.00,,,0.00,WUHU215HW,2013-03-07 21:15:00,
2013-03-07 15:20:00,56.4,32.2,30.04,SE,135,0.0,0.0,40,0.00,,,0.00,WUHU215HW,2013-03-07 21:20:00,
2013-03-07 15:23:00,56.5,32.3,30.04,SE,135,0.0,0.0,40,0.00,,,0.00,WUHU215HW,2013-03-07 21:23:00,
2013-03-07 15:25:00,56.6,32.4,30.04,SE,135,0.0,0.0,40,0.00,,,0.00,WUHU215HW,2013-03-07 21:25:00,
2013-03-07 15:30:00,56.9,32.6,30.04,SE,135,0.0,0.0,40,0.00,,,0.00,WUHU215HW,2013-03-07 21:30:00,
2013-03-07 15:35:00,57.1,32.8,30.04,SE,135,0.0,0.0,40,0.00,,,0.00,WUHU215HW,2013-03-07 21:35:00,
2013-03-07 15:40:00,57.4,33.1,30.04,SE,135,0.0,0.0,40,0.00,,,0.00,WUHU215HW,2013-03-07 21:40:00,
2013-03-07 15:45:00,57.6,33.3,30.04,SE,135,0.0,0.0,40,0.00,,,0.00,WUHU215HW,2013-03-07 21:45:00,
2013-03-07 15:47:00,57.7,33.4,30.04,SE,135,0.0,0.0,40,0.00,,,0.00,WUHU215HW,2013-03-07 21:47:00,
2013-03-07 15:51:00,57.9,33.6,30.04,SE,135,0.0,0.0,40,0.00,,,0.00,WUHU215HW,2013-03-07 21:51:00,
2013-03-07 15:52:00,58.0,33.6,30.04,SE,135,0.0,0.0,40,0.00,,,0.00,WUHU215HW,2013-03-07 21:52:00,
2013-03-07 15:56:00,58.2,33.8,30.04,SE,135,0.0,0.0,40,0.00,,,0.00,WUHU215HW,2013-03-07 21:56:00,
2013-03-07 15:57:00,58.2,33.9,30.04,SE,135,0.0,0.0,40,0.00,,,0.00,WUHU215HW,2013-03-07 21:57:00,
2013-03-07 16:02:00,58.5,34.1,30.04,SE,135,0.0,0.0,40,0.00,,,0.00,WUHU215HW,2013-03-07 22:02:00,
2013-03-07 16:06:00,58.7,34.3,30.04,SE,135,0.0,0.0,40,0.00,,,0.00,WUHU215HW,2013-03-07 22:06:00,
2013-03-07 16:07:00,58.7,34.3,30.04,SE,135,0.0,0.0,40,0.00,,,0.00,WUHU215HW,2013-03-07 22:07:00,
2013-03-07 16:08:00,58.8,34.4,30.04,SE,135,0.0,0.0,40,0.00,,,0.00,WUHU215HW,2013-03-07 22:08:00,
2013-03-07 16:11:00,58.6,34.2,30.04,SE,135,0.0,0.0,40,0.00,,,0.00,WUHU215HW,2013-03-07 22:11:00,
2013-03-07 16:12:00,58.6,34.2,30.04,SE,135,0.0,0.0,40,0.00,,,0.00,WUHU215HW,2013-03-07 22:12:00,
2013-03-07 16:17:00,58.3,33.9,30.04,SE,135,0.0,0.0,40,0.00,,,0.00,WUHU215HW,2013-03-07 22:17:00,
2013-03-07 16:18:00,58.3,33.9,30.04,SE,135,0.0,0.0,40,0.00,,,0.00,WUHU215HW,2013-03-07 22:18:00,
2013-03-07 16:22:00,58.1,33.7,30.04,SE,135,0.0,0.0,40,0.00,,,0.00,WUHU215HW,2013-03-07 22:22:00,
2013-03-07 16:23:00,58.0,33.7,30.04,SE,135,0.0,0.0,40,0.00,,,0.00,WUHU215HW,2013-03-07 22:23:00,
2013-03-07 16:28:00,57.8,33.4,30.04,SE,135,0.0,0.0,40,0.00,,,0.00,WUHU215HW,2013-03-07 22:28:00,
2013-03-07 16:33:00,57.5,33.2,30.04,SE,135,0.0,0.0,40,0.00,,,0.00,WUHU215HW,2013-03-07 22:33:00,
2013-03-07 16:38:00,57.3,33.0,30.04,SE,135,0.0,0.0,40,0.00,,,0.00,WUHU215HW,2013-03-07 22:38:00,
2013-03-07 16:43:00,57.1,32.8,30.04,SE,135,0.0,0.0,40,0.00,,,0.00,WUHU215HW,2013-03-07 22:43:00,
2013-03-07 16:44:00,57.0,32.8,30.04,SE,135,0.0,0.0,40,0.00,,,0.00,WUHU215HW,2013-03-07 22:44:00,
2013-03-07 16:45:00,57.0,32.7,30.04,SE,135,0.0,0.0,40,0.00,,,0.00,WUHU215HW,2013-03-07 22:45:00,
2013-03-07 16:49:00,56.8,32.6,30.04,SE,135,0.0,0.0,40,0.00,,,0.00,WUHU215HW,2013-03-07 22:49:00,
2013-03-07 16:51:00,56.8,32.5,30.04,SE,135,0.0,0.0,40,0.00,,,0.00,WUHU215HW,2013-03-07 22:51:00,
2013-03-07 16:54:00,56.6,32.4,30.04,SE,135,0.0,0.0,40,0.00,,,0.00,WUHU215HW,2013-03-07 22:54:00,
2013-03-07 16:58:00,56.5,32.3,30.04,SE,135,0.0,0.0,40,0.00,,,0.00,WUHU215HW,2013-03-07 22:58:00,
2013-03-07 16:59:00,56.5,32.3,30.04,SE,135,0.0,0.0,40,0.00,,,0.00,WUHU215HW,2013-03-07 22:59:00,
2013-03-07 17:00:00,56.4,32.2,30.04,SE,135,0.0,0.0,40,0.00,,,0.00,WUHU215HW,2013-03-07 23:00:00,
2013-03-07 17:04:00,56.3,32.1,30.04,SE,135,0.0,0.0,40,0.00,,,0.00,WUHU215HW,2013-03-07 23:04:00,
2013-03-07 17:06:00,56.3,32.1,30.04,SE,135,0.0,0.0,40,0.00,,,0.00,WUHU215HW,2013-03-07 23:06:00,
2013-03-07 17:11:00,56.1,32.0,30.04,SE,135,0.0,0.0,40,0.00,,,0.00,WUHU215HW,2013-03-07 23:11:00,
2013-03-07 17:13:00,56.1,31.9,30.04,SE,135,0.0,0.0,40,0.00,,,0.00,WUHU215HW,2013-03-07 23:13:00,
2013-03-07 17:16:00,56.0,31.9,30.04,SE,135,0.0,0.0,40,0.00,,,0.00,WUHU215HW,2013-03-07 23:16:00,
2013-03-07 17:17:00,56.0,31.8,30.04,SE,135,0.0,0.0,40,0.00,,,0.00,WUHU215HW,2013-03-07 23:17:00,
2013-03-07 17:21:00,55.9,31.8,30.04,SE,135,0.0,0.0,40,0.00,,,0.00,WUHU215HW,2013-03-07 23:21:00,
2013-03-07 17:24:00,55.9,31.7,30.04,SE,135,0.0,0.0,40,0.00,,,0.00,WUHU215HW,2013-03-07 23:24:00,
2013-03-07 17:26:00,55.9,31.7,30.04,SE,135,0.0,0.0,40,0.00,,,0.00,WUHU215HW,2013-03-07 23:26:00,
2013-03-07 17:31:00,55.8,31.7,30.04,SE,135,0.0,0.0,40,0.00,,,0.00,WUHU215HW,2013-03-07 23:31:00,
2013-03-07 17:36:00,55.8,31.7,30.04,SE,135,0.0,0.0,40,0.00,,,0.00,WUHU215HW,2013-03-07 23:36:00,
2013-03-07 17:37:00,55.8,31.7,30.04,SE,135,0.0,0.0,40,0.00,,,0.00,WUHU215HW,2013-03-07 23:37:00,
2013-03-07 17:42:00,55.8,31.7,30.04,SE,135,0.0,0.0,40,0.00,,,0.00,WUHU215HW,2013-03-07 23:42:00,
2013-03-07 17:44:00,55.8,31.7,30.04,SE,135,0.0,0.0,40,0.00,,,0.00,WUHU215HW,2013-03-07 23:44:00,
2013-03-07 17:47:00,55.8,31.7,30.04,SE,135,0.0,0.0,40,0.00,,,0.00,WUHU215HW,2013-03-07 23:47:00,
2013-03-07 17:52:00,55.9,31.7,30.04,SE,135,0.0,0.0,40,0.00,,,0.00,WUHU215HW,2013-03-07 23:52:00,
2013-03-07 17:54:00,55.9,31.8,30.04,SE,135,0.0,0.0,40,0.00,,,0.00,WUHU215HW,2013-03-07 23:54:00,
2013-03-07 17:57:00,56.0,31.8,30.04,SE,135,0.0,0.0,40,0.00,,,0.00,WUHU215HW,2013-03-07 23:57:00,
2013-03-07 18:02:00,56.1,31.9,30.04,SE,135,0.0,0.0,40,0.00,,,0.00,WUHU215HW,2013-03-08 00:02:00,
2013-03-07 18:07:00,47.5,27.1,30.04,East,90,0.0,0.0,45,0.00,,,0.00,WUHU215HW,2013-03-08 00:07:00,
2013-03-07 18:08:00,47.5,27.1,30.04,East,90,0.0,0.0,45,0.00,,,0.00,WUHU215HW,2013-03-08 00:08:00,
2013-03-07 18:12:00,47.1,26.7,30.04,East,90,0.0,0.0,45,0.00,,,0.00,WUHU215HW,2013-03-08 00:12:00,
2013-03-07 18:15:00,47.2,26.8,30.04,East,90,0.0,0.0,45,0.00,,,0.00,WUHU215HW,2013-03-08 00:15:00,
2013-03-07 18:17:00,46.8,26.4,30.04,East,90,0.0,0.0,45,0.00,,,0.00,WUHU215HW,2013-03-08 00:17:00,
2013-03-07 18:21:00,46.9,26.5,30.04,East,90,0.0,0.0,45,0.00,,,0.00,WUHU215HW,2013-03-08 00:21:00,
2013-03-07 18:22:00,46.9,26.6,30.04,East,90,0.0,0.0,45,0.00,,,0.00,WUHU215HW,2013-03-08 00:22:00,
2013-03-07 18:27:00,46.3,27.1,30.04,South,180,0.0,0.0,47,0.00,,,0.00,WUHU215HW,2013-03-08 00:27:00,
2013-03-07 18:28:00,46.4,27.1,30.04,South,180,0.0,0.0,47,0.00,,,0.00,WUHU215HW,2013-03-08 00:28:00,
2013-03-07 18:34:00,45.7,27.1,30.04,NE,45,0.0,0.0,48,0.00,,,0.00,WUHU215HW,2013-03-08 00:34:00,
2013-03-07 18:39:00,45.9,27.3,30.04,NE,45,0.0,0.0,48,0.00,,,0.00,WUHU215HW,2013-03-08 00:39:00,
2013-03-07 18:41:00,45.3,26.7,30.04,NE,45,0.0,0.0,48,0.00,,,0.00,WUHU215HW,2013-03-08 00:41:00,
2013-03-07 18:43:00,45.4,26.8,30.04,NE,45,0.0,0.0,48,0.00,,,0.00,WUHU215HW,2013-03-08 00:43:00,
2013-03-07 18:46:00,45.1,26.5,30.04,NE,45,0.0,0.0,48,0.00,,,0.00,WUHU215HW,2013-03-08 00:46:00,
2013-03-07 18:51:00,45.1,27.5,30.04,NE,45,0.0,0.0,50,0.00,,,0.00,WUHU215HW,2013-03-08 00:51:00,
2013-03-07 18:52:00,45.2,27.6,30.04,NE,45,0.0,0.0,50,0.00,,,0.00,WUHU215HW,2013-03-08 00:52:00,
2013-03-07 18:57:00,44.7,27.2,30.04,NE,45,0.0,0.0,50,0.00,,,0.00,WUHU215HW,2013-03-08 00:57:00,
2013-03-07 19:02:00,45.0,28.4,30.04,SSE,158,0.0,0.0,52,0.00,,,0.00,WUHU215HW,2013-03-08 01:02:00,
2013-03-07 19:03:00,45.0,28.5,30.04,SSE,158,0.0,0.0,52,0.00,,,0.00,WUHU215HW,2013-03-08 01:03:00,
2013-03-07 19:05:00,44.7,28.2,30.04,SSE,158,0.0,0.0,52,0.00,,,0.00,WUHU215HW,2013-03-08 01:05:00,
2013-03-07 19:07:00,44.8,28.3,30.04,SSE,158,0.0,0.0,52,0.00,,,0.00,WUHU215HW,2013-03-08 01:07:00,
2013-03-07 19:09:00,44.9,28.3,30.04,South,180,0.0,0.0,52,0.00,,,0.00,WUHU215HW,2013-03-08 01:09:00,
2013-03-07 19:10:00,44.9,28.3,30.04,South,180,0.0,0.0,52,0.00,,,0.00,WUHU215HW,2013-03-08 01:10:00,
2013-03-07 19:12:00,44.4,28.3,30.04,South,180,0.0,0.0,53,0.00,,,0.00,WUHU215HW,2013-03-08 01:12:00,
2013-03-07 19:15:00,44.4,28.3,30.04,South,180,0.0,0.0,53,0.00,,,0.00,WUHU215HW,2013-03-08 01:15:00,
2013-03-07 19:17:00,44.0,27.9,30.04,SSE,158,2.4,2.4,53,0.00,,,0.00,WUHU215HW,2013-03-08 01:17:00,
2013-03-07 19:18:00,44.0,27.9,30.04,SSE,158,2.4,2.4,53,0.00,,,0.00,WUHU215HW,2013-03-08 01:18:00,
2013-03-07 19:23:00,43.8,27.9,30.04,SSE,158,2.4,2.4,53,0.00,,,0.00,WUHU215HW,2013-03-08 01:23:00,
2013-03-07 19:25:00,43.5,27.9,30.04,SSE,158,2.4,2.4,54,0.00,,,0.00,WUHU215HW,2013-03-08 01:25:00,
2013-03-07 19:28:00,43.5,27.9,30.04,SSE,158,2.4,2.4,54,0.00,,,0.00,WUHU215HW,2013-03-08 01:28:00,
2013-03-07 19:30:00,43.5,27.9,30.04,SSE,158,2.4,2.4,54,0.00,,,0.00,WUHU215HW,2013-03-08 01:30:00,
2013-03-07 19:33:00,42.9,27.9,30.04,SSE,158,2.4,2.4,55,0.00,,,0.00,WUHU215HW,2013-03-08 01:33:00,
2013-03-07 19:36:00,42.9,27.9,30.04,SSE,158,2.4,2.4,55,0.00,,,0.00,WUHU215HW,2013-03-08 01:36:00,
2013-03-07 19:38:00,42.6,27.9,30.04,SSE,158,2.4,2.4,56,0.00,,,0.00,WUHU215HW,2013-03-08 01:38:00,
2013-03-07 19:40:00,42.6,27.9,30.04,SSE,158,2.4,2.4,56,0.00,,,0.00,WUHU215HW,2013-03-08 01:40:00,
2013-03-07 19:43:00,42.6,27.9,30.04,SSE,158,2.4,2.4,56,0.00,,,0.00,WUHU215HW,2013-03-08 01:43:00,
2013-03-07 19:44:00,42.4,27.9,30.04,SSE,154,1.8,2.4,56,0.00,,,0.00,WUHU215HW,2013-03-08 01:44:00,
2013-03-07 19:47:00,42.4,27.9,30.04,SE,135,0.8,2.4,56,0.00,,,0.00,WUHU215HW,2013-03-08 01:47:00,
2013-03-07 19:50:00,42.4,28.2,30.04,SE,135,0.8,2.4,57,0.00,,,0.00,WUHU215HW,2013-03-08 01:50:00,
2013-03-07 19:52:00,42.4,28.2,30.04,SE,135,0.8,2.4,57,0.00,,,0.00,WUHU215HW,2013-03-08 01:52:00,
2013-03-07 19:55:00,41.7,28.2,30.04,SE,135,0.8,0.8,57,0.00,,,0.00,WUHU215HW,2013-03-08 01:55:00,
2013-03-07 19:56:00,41.7,28.2,30.04,SE,135,0.8,0.8,57,0.00,,,0.00,WUHU215HW,2013-03-08 01:56:00,
2013-03-07 19:58:00,41.7,28.2,30.04,SE,135,0.8,0.8,57,0.00,,,0.00,WUHU215HW,2013-03-08 01:58:00,
2013-03-07 20:01:00,41.7,27.5,30.04,ENE,68,0.0,0.8,57,0.00,,,0.00,WUHU215HW,2013-03-08 02:01:00,
2013-03-07 20:04:00,41.5,27.3,30.04,ENE,68,0.0,0.8,57,0.00,,,0.00,WUHU215HW,2013-03-08 02:04:00,
2013-03-07 20:05:00,41.1,27.3,30.04,ENE,68,0.0,0.8,57,0.00,,,0.00,WUHU215HW,2013-03-08 02:05:00,
2013-03-07 20:06:00,41.1,27.3,30.04,ENE,68,0.0,0.8,57,0.00,,,0.00,WUHU215HW,2013-03-08 02:06:00,
2013-03-07 20:11:00,41.1,27.3,30.04,ENE,68,0.0,0.0,57,0.00,,,0.00,WUHU215HW,2013-03-08 02:11:00,
2013-03-07 20:12:00,41.1,27.3,30.04,ENE,68,0.0,0.0,57,0.00,,,0.00,WUHU215HW,2013-03-08 02:12:00,
2013-03-07 20:15:00,40.8,27.5,30.04,SSE,158,0.0,0.0,59,0.00,,,0.00,WUHU215HW,2013-03-08 02:15:00,
2013-03-07 20:17:00,40.8,27.5,30.04,SSE,158,0.0,0.0,59,0.00,,,0.00,WUHU215HW,2013-03-08 02:17:00,
2013-03-07 20:18:00,40.8,27.5,30.04,SE,135,0.0,0.0,59,0.00,,,0.00,WUHU215HW,2013-03-08 02:18:00,
2013-03-07 20:20:00,40.8,27.5,30.04,SE,135,0.0,0.0,59,0.00,,,0.00,WUHU215HW,2013-03-08 02:20:00,
2013-03-07 20:23:00,40.4,27.2,30.04,South,180,2.0,2.0,59,0.00,,,0.00,WUHU215HW,2013-03-08 02:23:00,
2013-03-07 20:24:00,40.4,27.2,30.04,South,180,2.0,2.0,59,0.00,,,0.00,WUHU215HW,2013-03-08 02:24:00,
2013-03-07 20:28:00,40.2,27.5,30.04,SSE,158,1.7,2.0,60,0.00,,,0.00,WUHU215HW,2013-03-08 02:28:00,
2013-03-07 20:29:00,40.1,27.5,30.04,SSE,158,1.7,2.0,60,0.00,,,0.00,WUHU215HW,2013-03-08 02:29:00,
2013-03-07 20:31:00,40.1,27.5,30.04,SSE,158,1.7,2.0,60,0.00,,,0.00,WUHU215HW,2013-03-08 02:31:00,
2013-03-07 20:33:00,40.1,27.5,30.04,SSE,158,1.7,1.7,60,0.00,,,0.00,WUHU215HW,2013-03-08 02:33:00,
2013-03-07 20:35:00,40.1,27.5,30.04,SSE,158,1.7,1.7,60,0.00,,,0.00,WUHU215HW,2013-03-08 02:35:00,
2013-03-07 20:36:00,40.1,27.3,30.04,SE,135,4.4,4.4,60,0.00,,,0.00,WUHU215HW,2013-03-08 02:36:00,
2013-03-07 20:38:00,39.7,26.9,30.04,SE,137,3.2,4.4,60,0.00,,,0.00,WUHU215HW,2013-03-08 02:38:00,
2013-03-07 20:41:00,39.7,26.9,30.04,SSE,158,0.8,4.4,60,0.00,,,0.00,WUHU215HW,2013-03-08 02:41:00,
2013-03-07 20:44:00,39.5,26.9,30.04,South,180,0.0,4.4,60,0.00,,,0.00,WUHU215HW,2013-03-08 02:44:00,
2013-03-07 20:45:00,39.5,26.9,30.04,South,180,0.0,4.4,60,0.00,,,0.00,WUHU215HW,2013-03-08 02:45:00,
2013-03-07 20:46:00,39.5,26.9,30.04,SE,135,0.0,4.4,60,0.00,,,0.00,WUHU215HW,2013-03-08 02:46:00,
2013-03-07 20:49:00,39.3,26.9,30.04,North,0,0.0,0.8,60,0.00,,,0.00,WUHU215HW,2013-03-08 02:49:00,
2013-03-07 20:51:00,39.3,26.9,30.04,North,0,0.0,0.0,61,0.00,,,0.00,WUHU215HW,2013-03-08 02:51:00,
2013-03-07 20:53:00,39.0,26.6,30.04,North,0,0.0,0.0,61,0.00,,,0.00,WUHU215HW,2013-03-08 02:53:00,
2013-03-07 20:56:00,39.0,26.6,30.04,North,0,0.0,0.0,61,0.00,,,0.00,WUHU215HW,2013-03-08 02:56:00,
2013-03-07 20:59:00,38.8,26.4,30.04,SE,135,0.0,0.0,61,0.00,,,0.00,WUHU215HW,2013-03-08 02:59:00,
2013-03-07 21:01:00,38.8,26.4,30.04,SE,135,0.0,0.0,61,0.00,,,0.00,WUHU215HW,2013-03-08 03:01:00,
2013-03-07 21:02:00,37.4,26.4,30.04,SE,135,0.0,0.0,61,0.00,,,0.00,WUHU215HW,2013-03-08 03:02:00,
2013-03-07 21:07:00,38.4,26.4,30.04,ESE,113,0.0,0.0,62,0.00,,,0.00,WUHU215HW,2013-03-08 03:07:00,
2013-03-07 21:09:00,38.3,26.4,30.04,SE,135,0.0,0.0,62,0.00,,,0.00,WUHU215HW,2013-03-08 03:09:00,
2013-03-07 21:11:00,38.3,26.7,30.04,SE,135,0.0,0.0,63,0.00,,,0.00,WUHU215HW,2013-03-08 03:11:00,
2013-03-07 21:12:00,38.1,26.5,30.04,SE,135,0.0,0.0,63,0.00,,,0.00,WUHU215HW,2013-03-08 03:12:00,
2013-03-07 21:16:00,37.9,26.5,30.04,SE,135,0.0,0.0,63,0.00,,,0.00,WUHU215HW,2013-03-08 03:16:00,
2013-03-07 21:17:00,37.9,26.5,30.04,SE,135,0.0,0.0,63,0.00,,,0.00,WUHU215HW,2013-03-08 03:17:00,
2013-03-07 21:18:00,37.5,26.5,30.04,SE,135,0.0,0.0,63,0.00,,,0.00,WUHU215HW,2013-03-08 03:18:00,
2013-03-07 21:22:00,37.4,26.5,30.04,SE,135,0.0,0.0,64,0.00,,,0.00,WUHU215HW,2013-03-08 03:22:00,
2013-03-07 21:23:00,37.2,26.5,30.04,SE,135,0.0,0.0,64,0.00,,,0.00,WUHU215HW,2013-03-08 03:23:00,
2013-03-07 21:25:00,37.2,26.5,30.04,SE,135,0.0,0.0,64,0.00,,,0.00,WUHU215HW,2013-03-08 03:25:00,
2013-03-07 21:27:00,37.0,26.5,30.04,SE,135,0.0,0.0,65,0.00,,,0.00,WUHU215HW,2013-03-08 03:27:00,
2013-03-07 21:29:00,36.8,26.5,30.04,South,180,1.5,1.5,65,0.00,,,0.00,WUHU215HW,2013-03-08 03:29:00,
2013-03-07 21:31:00,36.6,26.5,30.04,South,180,1.5,1.5,65,0.00,,,0.00,WUHU215HW,2013-03-08 03:31:00,
2013-03-07 21:35:00,36.5,26.5,30.04,South,180,1.5,1.5,66,0.00,,,0.00,WUHU215HW,2013-03-08 03:35:00,
2013-03-07 21:36:00,36.5,26.2,30.04,South,180,1.5,1.5,66,0.00,,,0.00,WUHU215HW,2013-03-08 03:36:00,
2013-03-07 21:37:00,36.5,26.2,30.04,South,180,1.5,1.5,66,0.00,,,0.00,WUHU215HW,2013-03-08 03:37:00,
2013-03-07 21:41:00,36.1,26.2,30.04,South,180,1.5,1.5,66,0.00,,,0.00,WUHU215HW,2013-03-08 03:41:00,
2013-03-07 21:44:00,35.9,26.2,30.04,South,180,1.5,1.5,66,0.00,,,0.00,WUHU215HW,2013-03-08 03:44:00,
2013-03-07 21:45:00,35.9,26.2,30.04,South,180,1.5,1.5,66,0.00,,,0.00,WUHU215HW,2013-03-08 03:45:00,
2013-03-07 21:48:00,35.9,26.0,30.04,South,180,0.0,1.5,67,0.00,,,0.00,WUHU215HW,2013-03-08 03:48:00,
2013-03-07 21:49:00,35.7,26.0,30.04,South,180,0.0,1.5,67,0.00,,,0.00,WUHU215HW,2013-03-08 03:49:00,
2013-03-07 21:50:00,35.7,26.0,30.04,South,180,0.0,1.5,67,0.00,,,0.00,WUHU215HW,2013-03-08 03:50:00,
2013-03-07 21:54:00,35.7,25.8,30.04,SSE,158,0.0,1.5,67,0.00,,,0.00,WUHU215HW,2013-03-08 03:54:00,
2013-03-07 21:55:00,35.4,25.8,30.04,SSE,158,0.0,1.5,67,0.00,,,0.00,WUHU215HW,2013-03-08 03:55:00,
2013-03-07 21:57:00,35.4,25.8,30.04,SW,225,0.0,0.0,68,0.00,,,0.00,WUHU215HW,2013-03-08 03:57:00,
2013-03-07 22:02:00,35.2,25.8,30.04,SW,225,0.0,0.0,69,0.00,,,0.00,WUHU215HW,2013-03-08 04:02:00,
2013-03-07 22:03:00,35.2,25.8,30.04,SSE,158,0.0,0.0,69,0.00,,,0.00,WUHU215HW,2013-03-08 04:03:00,
2013-03-07 22:05:00,35.2,26.0,30.04,SSE,158,0.0,0.0,69,0.00,,,0.00,WUHU215HW,2013-03-08 04:05:00,
2013-03-07 22:07:00,35.2,26.0,30.04,SSE,158,0.0,0.0,69,0.00,,,0.00,WUHU215HW,2013-03-08 04:07:00,
2013-03-07 22:10:00,35.2,26.0,30.04,SSE,158,0.0,0.0,69,0.00,,,0.00,WUHU215HW,2013-03-08 04:10:00,
2013-03-07 22:11:00,35.2,26.0,30.04,SSE,158,0.0,0.0,69,0.00,,,0.00,WUHU215HW,2013-03-08 04:11:00,
2013-03-07 22:15:00,34.8,26.0,30.04,SSE,158,0.0,0.0,69,0.00,,,0.00,WUHU215HW,2013-03-08 04:15:00,
2013-03-07 22:16:00,34.8,26.0,30.04,SSE,158,0.0,0.0,69,0.00,,,0.00,WUHU215HW,2013-03-08 04:16:00,
2013-03-07 22:18:00,34.8,26.0,30.04,SSE,158,0.0,0.0,69,0.00,,,0.00,WUHU215HW,2013-03-08 04:18:00,
2013-03-07 22:20:00,34.8,26.0,30.04,SSE,158,0.0,0.0,69,0.00,,,0.00,WUHU215HW,2013-03-08 04:20:00,
2013-03-07 22:21:00,34.8,26.0,30.04,SSE,158,0.0,0.0,69,0.00,,,0.00,WUHU215HW,2013-03-08 04:21:00,
2013-03-07 22:23:00,34.8,26.0,30.04,SSE,158,0.0,0.0,69,0.00,,,0.00,WUHU215HW,2013-03-08 04:23:00,
2013-03-07 22:28:00,34.1,26.0,30.04,SSE,158,0.0,0.0,69,0.00,,,0.00,WUHU215HW,2013-03-08 04:28:00,
2013-03-07 22:29:00,34.1,24.9,30.04,ENE,68,0.0,0.0,69,0.00,,,0.00,WUHU215HW,2013-03-08 04:29:00,
2013-03-07 22:34:00,33.8,25.3,30.04,ENE,68,0.0,0.0,71,0.00,,,0.00,WUHU215HW,2013-03-08 04:34:00,
2013-03-07 22:39:00,33.6,25.3,30.04,ENE,68,0.0,0.0,72,0.00,,,0.00,WUHU215HW,2013-03-08 04:39:00,
2013-03-07 22:41:00,33.6,25.3,30.04,ENE,68,0.0,0.0,72,0.00,,,0.00,WUHU215HW,2013-03-08 04:41:00,
2013-03-07 22:42:00,33.6,25.3,30.04,ENE,68,0.0,0.0,72,0.00,,,0.00,WUHU215HW,2013-03-08 04:42:00,
2013-03-07 22:44:00,33.4,25.3,30.04,ENE,68,0.0,0.0,72,0.00,,,0.00,WUHU215HW,2013-03-08 04:44:00,
2013-03-07 22:48:00,33.4,25.3,30.04,ENE,68,0.0,0.0,73,0.00,,,0.00,WUHU215HW,2013-03-08 04:48:00,
2013-03-07 22:50:00,33.2,25.3,30.04,ENE,68,0.0,0.0,73,0.00,,,0.00,WUHU215HW,2013-03-08 04:50:00,
2013-03-07 22:51:00,33.2,25.3,30.04,ENE,68,0.0,0.0,73,0.00,,,0.00,WUHU215HW,2013-03-08 04:51:00,
2013-03-07 22:53:00,33.0,24.9,30.04,ESE,113,0.0,0.0,72,0.00,,,0.00,WUHU215HW,2013-03-08 04:53:00,
2013-03-07 22:55:00,33.0,25.3,30.04,SSE,158,0.0,0.0,73,0.00,,,0.00,WUHU215HW,2013-03-08 04:55:00,
2013-03-07 22:56:00,33.0,25.3,30.04,SSE,158,0.0,0.0,73,0.00,,,0.00,WUHU215HW,2013-03-08 04:56:00,
2013-03-07 23:00:00,32.9,25.3,30.04,SSE,158,0.0,0.0,73,0.00,,,0.00,WUHU215HW,2013-03-08 05:00:00,
2013-03-07 23:01:00,32.9,25.3,30.04,SSE,158,0.0,0.0,73,0.00,,,0.00,WUHU215HW,2013-03-08 05:01:00,
2013-03-07 23:04:00,32.9,25.3,30.04,SSE,158,0.0,0.0,73,0.00,,,0.00,WUHU215HW,2013-03-08 05:04:00,
2013-03-07 23:06:00,32.7,25.3,30.04,SSE,158,0.0,0.0,73,0.00,,,0.00,WUHU215HW,2013-03-08 05:06:00,
2013-03-07 23:07:00,32.7,25.3,30.04,SSE,158,0.0,0.0,73,0.00,,,0.00,WUHU215HW,2013-03-08 05:07:00,
2013-03-07 23:08:00,32.7,25.3,30.04,SSE,158,0.0,0.0,74,0.00,,,0.00,WUHU215HW,2013-03-08 05:08:00,
2013-03-07 23:11:00,32.7,25.3,30.04,SSE,158,0.0,0.0,74,0.00,,,0.00,WUHU215HW,2013-03-08 05:11:00,
2013-03-07 23:14:00,32.5,25.3,30.04,SSE,158,0.0,0.0,74,0.00,,,0.00,WUHU215HW,2013-03-08 05:14:00,
2013-03-07 23:15:00,32.5,25.3,30.04,SSE,158,0.0,0.0,74,0.00,,,0.00,WUHU215HW,2013-03-08 05:15:00,
2013-03-07 23:19:00,32.3,25.3,30.04,SSE,158,0.0,0.0,74,0.00,,,0.00,WUHU215HW,2013-03-08 05:19:00,
2013-03-07 23:20:00,32.3,25.3,30.04,SSE,158,3.5,3.5,74,0.00,,,0.00,WUHU215HW,2013-03-08 05:20:00,
2013-03-07 23:21:00,32.3,24.9,30.04,SSE,158,3.5,3.5,74,0.00,,,0.00,WUHU215HW,2013-03-08 05:21:00,
2013-03-07 23:24:00,32.3,24.9,30.04,SSE,158,3.5,3.5,74,0.00,,,0.00,WUHU215HW,2013-03-08 05:24:00,
2013-03-07 23:26:00,32.3,24.9,30.04,SSE,158,3.5,3.5,74,0.00,,,0.00,WUHU215HW,2013-03-08 05:26:00,
2013-03-07 23:27:00,32.3,24.9,30.04,SSE,158,3.5,3.5,74,0.00,,,0.00,WUHU215HW,2013-03-08 05:27:00,
2013-03-07 23:31:00,32.3,24.9,30.04,SSE,158,3.5,3.5,74,0.00,,,0.00,WUHU215HW,2013-03-08 05:31:00,
2013-03-07 23:32:00,32.3,24.9,30.04,SSE,158,3.5,3.5,74,0.00,,,0.00,WUHU215HW,2013-03-08 05:32:00,
2013-03-07 23:35:00,32.3,24.9,30.04,SSE,158,3.5,3.5,74,0.00,,,0.00,WUHU215HW,2013-03-08 05:35:00,
2013-03-07 23:36:00,32.3,24.9,30.04,SSE,158,3.5,3.5,74,0.00,,,0.00,WUHU215HW,2013-03-08 05:36:00,
2013-03-07 23:37:00,32.3,24.9,30.04,SSE,158,3.5,3.5,74,0.00,,,0.00,WUHU215HW,2013-03-08 05:37:00,
2013-03-07 23:41:00,32.3,24.9,30.04,SSE,158,3.5,3.5,74,0.00,,,0.00,WUHU215HW,2013-03-08 05:41:00,
2013-03-07 23:45:00,32.3,24.9,30.04,SSE,158,3.5,3.5,74,0.00,,,0.00,WUHU215HW,2013-03-08 05:45:00,
2013-03-07 23:46:00,32.3,24.9,30.04,SSE,158,3.5,3.5,74,0.00,,,0.00,WUHU215HW,2013-03-08 05:46:00,
2013-03-07 23:51:00,32.3,24.9,30.04,SSE,158,3.5,3.5,74,0.00,,,0.00,WUHU215HW,2013-03-08 05:51:00,
2013-03-07 23:54:00,32.3,24.9,30.04,SSE,158,3.5,3.5,74,0.00,,,0.00,WUHU215HW,2013-03-08 05:54:00,
2013-03-07 23:55:00,32.3,24.9,30.04,SSE,158,3.5,3.5,74,0.00,,,0.00,WUHU215HW,2013-03-08 05:55:00,
2013-03-07 23:56:00,32.3,24.9,30.04,SSE,158,3.5,3.5,74,0.00,,,0.00,WUHU215HW,2013-03-08 05:56:00,